• Join FlightAware (Why Join?)
  • Login
  • US Flag 
06:55AM EST


 

Airport Tracker/Info


-or-


 

Live Flight TrackerFlight Track Log ✈ EJA396 ✈ 04-Oct-2013 ✈ KTYQ - KBNA

Flight Track Log - Related Links

Times and Time Zones

All times are in EDT time to prevent confusion due to time zone crossing. See the EJA396 flight status page for this flight to view local times or setup timezone preferences in your user account.

Time Position Orientation Groundspeed Altitude Reporting Facility
EDT Latitude Longitude Course Direction KTS MPH feet Rate Location/Type
10:00AM 40.0167 -86.2500 229° Southwest 183 211 1,700  Level Indianapolis TRACON
10:01AM 39.9833 -86.3000 229° Southwest 215 247 3,000 1,169 Climbing Indianapolis TRACON
10:02AM 39.9394 -86.3478 220° Southwest 211 243 4,000 526 Climbing Indianapolis Center
10:03AM 39.8928 -86.4017 222° Southwest 220 253 4,000  Level Indianapolis Center
10:04AM 39.8447 -86.4572 222° Southwest 227 261 4,000 1,839 Level Indianapolis Center
10:05AM 39.7850 -86.5267 222° Southwest 239 275 7,800 2,613 Climbing Indianapolis Center
10:06AM 39.7297 -86.5922 222° Southwest 260 299 9,400 2,903 Climbing Indianapolis Center
10:07AM 39.6731 -86.6611 223° Southwest 277 319 13,800 4,016 Climbing Indianapolis Center
10:08AM 39.6106 -86.7317 221° Southwest 297 342 17,700 3,677 Climbing Indianapolis Center
10:09AM 39.5344 -86.8183 221° Southwest 305 351 21,400 2,952 Climbing Indianapolis Center
10:10AM 39.4658 -86.8981 222° Southwest 328 377 23,800 1,742 Climbing Indianapolis Center
10:11AM 39.3714 -86.9544 205° Southwest 386 444 25,000 576 Climbing Indianapolis Center
10:12AM 39.2531 -86.9725 187° South 428 493 25,000  Level Indianapolis Center
10:13AM 39.1261 -86.9928 187° South 428 493 25,000  Level Indianapolis Center
10:14AM 39.0069 -87.0117 187° South 429 494 25,000  Level Indianapolis Center
10:15AM 38.8872 -87.0300 187° South 430 495 25,000  Level Indianapolis Center
10:16AM 38.7661 -87.0497 187° South 437 503 25,000  Level Indianapolis Center
10:17AM 38.6203 -87.0719 187° South 438 504 25,000  Level Indianapolis Center
10:18AM 38.5000 -87.0911 187° South 436 502 25,000  Level Indianapolis Center
10:19AM 38.3878 -87.1089 187° South 429 494 25,000  Level Indianapolis Center
10:20AM 38.2508 -87.1289 187° South 437 503 25,000  Level Indianapolis Center
10:21AM 38.1231 -87.1503 188° South 441 507 25,000  Level Indianapolis Center
10:22AM 38.0008 -87.1686 187° South 440 506 25,000  Level Indianapolis Center
10:23AM 37.8789 -87.1872 187° South 439 505 25,000 -48 Level Indianapolis Center
10:24AM 37.7569 -87.2053 187° South 439 505 24,900 -774 Descending Indianapolis Center
10:25AM 37.6333 -87.2253 187° South 433 498 23,400 -919 Descending Indianapolis Center
10:27AM 37.5142 -87.2431 187° South 427 491 23,000 -194 Descending Indianapolis Center
10:28AM 37.3933 -87.2622 187° South 433 498 23,000  Level Indianapolis Center
10:29AM 37.2714 -87.2339 170° South 439 505 23,000 -240 Level Indianapolis Center
10:30AM 37.1317 -87.1994 169° South 437 503 22,500 -1,920 Descending Indianapolis Center
10:31AM 37.0150 -87.1689 168° South 426 490 19,000 -3,097 Descending Indianapolis Center
10:32AM 36.9094 -87.1414 168° South 390 449 16,100 -2,855 Descending Indianapolis Center
10:33AM 36.8136 -87.0947 159° South 371 427 13,100 -2,468 Descending Indianapolis Center
10:34AM 36.7283 -87.0431 154° Southeast 343 395 11,000 -1,161 Descending Indianapolis Center
10:35AM 36.6528 -86.9961 154° Southeast 304 350 10,700 -1,403 Descending Indianapolis Center
10:36AM 36.5844 -86.9400 147° Southeast 294 338 8,100 -2,855 Descending Indianapolis Center
10:37AM 36.5078 -86.8781 147° Southeast 281 323 4,800 -1,984 Descending Indianapolis Center
10:38AM 36.4547 -86.8158 137° Southeast 272 313 4,000 -356 Descending Indianapolis Center
10:39AM 36.4014 -86.7217 125° Southeast 269 310 4,000 -586 Level Memphis Center
10:40AM 36.3614 -86.6461 123° Southeast 269 310 2,700 -750 Descending Memphis Center
10:41AM 36.3239 -86.5756 123° Southeast 252 290 2,500 -100 Descending Memphis Center
10:42AM 36.2786 -86.5958 200° South 160 184 2,500  Level Memphis Center
10:43AM 36.2356 -86.6183 203° Southwest 166 191 2,500 -350 Level Memphis Center
10:44AM 36.1883 -86.6383 199° South 186 214 1,800 -750 Descending Memphis Center
10:45AM 36.1511 -86.6531 198° South 161 185 1,000 -450 Descending Memphis Center
10:46AM 36.1058 -86.6756 202° Southwest 150 173 900 -100 Descending Memphis Center